Location: Willingham
(52.3167°N, 0.0667°E)
Time: 22:23:43
(UTC+00:00)

Cosmos 158 Rocket - Pass Details

Date: 19 May 2025
Orbit: 694 x 787 km, 74.0° (Epoch: 11 June)

Event Time Altitude Azimuth Distance (km) Brightness Sun altitude
Rises 20:31:38 0° 183° (S) 3,232 6.8 -5.2°
Reaches altitude 10° 20:34:04 10° 177° (S) 2,321 6.1 -5.4°
Maximum altitude 20:39:04 45° 106° (ESE) 1,068 4.4 -6.0°
Drops below altitude 10° 20:44:09 10° 35° (NE) 2,360 6.7 -6.5°
Sets 20:46:39 0° 29° (NNE) 3,293 7.5 -6.8°
